Location: Observatoire
(46.1952°N, 5.3391°E)
Time: 01:43:25
(UTC+01:00)

A-11 Canister half - Pass Details

Date: 19 February 2026
Orbit: 1525 x 1683 km, 47.3° (Epoch: 9 March)

Event Time Altitude Azimuth Distance (km) Brightness Sun altitude
Rises 15:36:57 0° 209° (SSW) 4,746 12.9 21.9°
Reaches altitude 10° 15:40:20 10° 202° (SSW) 3,744 12.5 21.4°
Maximum altitude 15:48:44 38° 138° (SE) 2,189 10.1 20.4°
Drops below altitude 10° 15:57:01 10° 75° (ENE) 3,694 10.6 19.4°
Sets 16:00:17 0° 68° (ENE) 4,677 11.0 18.9°
